Starlink 32291

operational
NORAD ID: 62442 Int'l Des: 2024-251 Owner: SPXS Country: US Constellation: starlink
LEOCIRCULAR

About Starlink 32291

Description loading...

Live Position

Loading 3D Globe...

Upcoming Passes

Altitude History

Altitude vs Time

uPlot chart will show altitude changes over time

Two-Line Element Set

1 62442U 24251L 25257.76460560 .00027078 00000-0 92274-3 0 9998
2 62442 53.1594 72.4449 0001136 78.1789 281.9339 15.30209578 40704
Epoch: Sep 14, 2025 • Age: 26 hours

Current Status

Altitude 485.7 km
Velocity 7.62 km/s
Sub-Earth Point -32.48°S, 25.27°W
Launch Date Dec 29, 2024
Age 0.7 years
Type internet

Technical Details

Classification Payload
Mass 730.00 kg
Dry Mass 700.00 kg
Total Mass 730.00 kg
Length 0.30 m
Diameter 4.10 m
Span 29.00 m
Shape Box + pan
Manufacturer SPXS
Bus Type Starlink V2M
Phase Status In Orbit
Owner/State SPXS/US

Large Constellations

Loading constellations...